{"data":{"norad_id":67143,"intl_designator":"2025-301L","name":"KUIPER-00191","alt_names":[],"object_type":"PAYLOAD","status":"ACTIVE","operator":null,"country":"US","launch_date":"2025-12-16","launch_site_code":"AFETR","launch_vehicle":null,"mission":null,"orbit_class":"UNKNOWN","rcs_meters":null,"size_class":null,"mass_kg":null,"dimensions":null,"purposes":[],"wikipedia_slug":null,"has_3d_model":false,"image_url":null,"decayed_at":null,"tle_current":{"epoch":"2026-05-25T03:05:01.762368Z","epoch_age_seconds":57905,"freshness":"FRESH","line1":"1 67143U 25301L   26145.12849262  .00002838  00000+0  40087-3 0  9996","line2":"2 67143  51.9005  95.1322 0000835  66.6705 293.4345 14.79958926 24973","mean_motion":14.79958926,"eccentricity":8.35e-5,"inclination_deg":51.9005,"raan_deg":95.1322,"arg_perigee_deg":66.6705,"mean_anomaly_deg":293.4345,"bstar":0.00040087,"rev_number":2497,"period_min":97.299997635205,"perigee_km":628.8686545814,"apogee_km":630.03892224307,"semimajor_km":7007.5907884122,"source":"CELESTRAK","updated_at":"2026-05-25T13:38:06.750896Z"}}}